Location: ??
(35.5052°N, 139.7262°E)
Time: 00:53:03
(UTC+00:00)

Cosmos 1553 Rocket - Pass Details

Date: 20 June 2021
Orbit: 940 x 1009 km, 82.9° (Epoch: 05 August)

Event Time Altitude Azimuth Distance (km) Brightness Sun altitude
Rises 17:47:13 0° 345° (NNW) 3,697 7.5 -16.7°
Reaches altitude 10° 17:49:54 10° 338° (NNW) 2,735 6.6 -16.3°
Maximum altitude 17:55:39 40° 271° (W) 1,383 4.5 -15.5°
Enters shadow 17:59:18 21° 214° (SW) 2,022 5.1 -14.9°
